FW7336 Weather Reports


time (UTC)temp
C
wind
direction
speed
KPH
gust
KPH
rain 1hr
cm
rain 24hr
cm
rain mn
cm
humidity
%
barometer
mb
20260507141618 13 94 6.4 14.5 0.00 0.00 0.00 61 1016.5
20260507134601 13 129 8.0 16.1 0.00 0.00 0.00 61 1016.8
20260507133054 13 120 9.7 16.1 0.00 0.00 0.00 61 1016.7
20260507131556 13 124 9.7 12.9 0.00 0.00 0.00 62 1016.8
20260507130058 13 129 9.7 14.5 0.00 0.00 0.00 62 1016.9
20260507124552 13 105 8.0 16.1 0.00 0.00 0.00 63 1016.9
20260507123054 12 129 8.0 16.1 0.00 0.00 0.00 63 1016.9
20260507121558 12 79 4.8 12.9 0.00 0.00 0.00 65 1017.0
20260507120144 12 153 8.0 17.7 0.00 0.00 0.00 64 1017.1
20260507114602 13 145 4.8 17.7 0.00 0.00 0.00 66 1017.0
20260507113057 12 188 6.4 19.3 0.00 0.00 0.00 68 1017.1
20260507111600 12 126 8.0 20.9 0.00 0.00 0.00 70 1017.2
20260507110111 12 167 9.7 14.5 0.00 0.00 0.00 69 1017.2
20260507104554 12 181 6.4 20.9 0.00 0.00 0.00 71 1017.4
20260507103052 11 229 4.8 17.7 0.00 0.00 0.00 71 1017.6
20260507101625 11 155 4.8 12.9 0.00 0.00 0.00 74 1017.6
20260507100056 11 205 8.0 16.1 0.00 0.00 0.00 74 1017.6
20260507094552 11 136 4.8 11.3 0.00 0.00 0.00 76 1017.6
20260507093057 11 226 8.0 19.3 0.00 0.00 0.00 76 1017.7
20260507091549 10 160 9.7 20.9 0.00 0.00 0.00 78 1017.5
20260507090057 10 166 9.7 16.1 0.00 0.00 0.00 79 1017.5
20260507084557 10 153 12.9 19.3 0.00 0.00 0.00 79 1017.6
20260507083055 10 143 6.4 9.7 0.00 0.00 0.00 80 1017.6
20260507081553 10 296 1.6 4.8 0.00 0.00 0.00 82 1017.6
20260507080053 10 41 0.0 1.6 0.00 0.00 0.00 88 1017.6
20260507074601 8 0 0.0 3.2 0.00 0.00 0.00 90 1017.6
20260507073054 8 0 0.0 1.6 0.00 0.00 0.00 92 1017.5
20260507071554 7 331 0.0 1.6 0.00 0.00 0.00 93 1017.3
20260507070057 6 331 0.0 4.8 0.00 0.00 0.00 92 1017.3
20260507064621 6 313 1.6 6.4 0.00 0.00 0.00 90 1017.4
20260507063058 6 0 0.0 1.6 0.00 0.00 0.00 94 1017.3
20260507061552 5 356 0.0 3.2 0.00 0.00 0.00 94 1017.2
20260507060057 3 341 1.6 6.4 0.00 0.00 0.00 94 1017.2
20260507054604 3 339 3.2 4.8 0.00 0.00 0.00 92 1017.1
20260507053054 4 312 3.2 6.4 0.00 0.00 0.00 92 1017.2
20260507051555 4 336 0.0 6.4 0.00 0.00 0.00 94 1017.0
20260507044551 3 51 1.6 4.8 0.00 0.00 0.00 95 1016.9
20260507043100 2 311 0.0 1.6 0.00 0.00 0.00 93 1017.0
20260507041603 3 312 0.0 3.2 0.00 0.00 0.00 93 1017.0
20260507040057 3 316 0.0 3.2 0.00 0.00 0.00 93 1017.0
20260507034557 3 316 1.6 3.2 0.00 0.00 0.00 93 1017.1
20260507033055 3 0 0.0 1.6 0.00 0.00 0.00 93 1017.1
20260507031553 3 0 0.0 0.0 0.00 0.00 0.00 93 1017.1
20260507030059 3 0 0.0 1.6 0.00 0.00 0.00 93 1017.1
20260507024554 3 0 0.0 3.2 0.00 0.00 0.00 93 1017.0
20260507023109 3 0 0.0 1.6 0.00 0.00 0.00 93 1017.0
20260507021556 3 0 0.0 3.2 0.00 0.00 0.00 93 1016.8
20260507020057 3 304 3.2 4.8 0.00 0.00 0.00 92 1017.0
20260507014607 3 302 3.2 6.4 0.00 0.00 0.00 92 1017.2
20260507013111 3 308 3.2 4.8 0.00 0.00 0.00 91 1017.2
20260507011553 4 314 1.6 3.2 0.00 0.00 0.00 91 1017.2
20260507010054 5 321 1.6 3.2 0.00 0.00 0.00 92 1017.2
20260507004554 5 327 0.0 1.6 0.00 0.00 0.00 92 1017.2
20260507003057 5 327 0.0 1.6 0.00 0.00 0.00 91 1017.1
20260507001622 5 326 0.0 3.2 0.00 0.00 0.00 91 1017.3
20260507000059 5 333 0.0 0.0 0.00 0.00 0.00 91 1017.4
20260506234554 5 0 0.0 1.6 0.00 0.00 0.00 90 1017.4
20260506233102 5 333 0.0 1.6 0.00 0.00 0.00 90 1017.4
20260506231554 5 333 0.0 3.2 0.00 0.00 0.00 90 1017.5
20260506230059 5 0 1.6 4.8 0.00 0.00 0.00 89 1017.5
20260506224552 5 350 3.2 4.8 0.00 0.00 0.00 89 1017.6
20260506223106 5 0 0.0 1.6 0.00 0.00 0.00 89 1017.5
20260506221602 6 331 1.6 4.8 0.00 0.00 0.00 88 1017.4
20260506220058 6 355 3.2 6.4 0.00 0.00 0.00 88 1017.3
20260506214608 6 1 4.8 9.7 0.00 0.00 0.00 87 1017.3
20260506213055 6 53 8.0 12.9 0.00 0.00 0.00 87 1017.0
20260506211553 6 75 9.7 14.5 0.00 0.00 0.00 87 1016.9
20260506210128 7 81 6.4 11.3 0.00 0.00 0.00 86 1017.0
20260506204601 7 59 8.0 12.9 0.00 0.00 0.00 86 1017.1
20260506203104 7 62 9.7 14.5 0.00 0.00 0.00 85 1017.0
20260506201607 7 68 9.7 14.5 0.00 0.00 0.00 84 1016.8
20260506200146 7 63 11.3 17.7 0.00 0.00 0.00 84 1016.6
20260506194617 7 66 11.3 17.7 0.00 0.00 0.00 82 1016.6
20260506193101 7 76 12.9 17.7 0.00 0.00 0.00 81 1016.6
20260506191603 8 69 11.3 16.1 0.00 0.00 0.00 80 1016.5
20260506190111 8 81 11.3 19.3 0.00 0.00 0.00 81 1016.5
20260506184601 8 61 12.9 19.3 0.00 0.00 0.00 80 1016.5
20260506183111 8 60 16.1 17.7 0.00 0.00 0.00 79 1016.5
20260506181600 8 57 12.9 17.7 0.00 0.00 0.00 79 1016.4
20260506174556 8 70 16.1 17.7 0.00 0.00 0.00 1016.3
20260506173154 8 63 16.1 19.3 0.00 0.00 0.00 1016.2
20260506171602 8 81 16.1 22.5 0.00 0.00 0.00 78 1016.1
20260506170151 8 72 16.1 24.1 0.00 0.00 0.00 79 1016.0
20260506164553 9 50 16.1 22.5 0.00 0.00 0.00 79 1016.2
20260506163119 9 52 16.1 25.7 0.00 0.00 0.00 77 1016.1
20260506160152 9 53 14.5 20.9 0.00 0.00 0.00 77 1016.1
20260506153137 8 45 17.7 22.5 0.00 0.00 0.00 78 1016.2
20260506151556 8 53 20.9 27.4 0.00 0.00 0.00 78 1016.2
20260506150056 8 58 19.3 27.4 0.00 0.00 0.00 78 1016.1
20260506144750 8 64 22.5 30.6 0.00 0.00 0.00 79 1016.2
20260506143055 8 58 20.9 29.0 0.00 0.00 0.00 78 1016.2